Total_Precipitation_Accumulation
0.25 0.29 0.38 0.52 0.45 0.31 0.18 0.07 0.04 0.06 0.07 0.06 0.05 0.06 0.08 0.11 0.18 0.29 0.26 0.23 0.19 0.22 0.38 0.62 0.75 0.78 0.79 0.70 0.56 0.46 0.46 0.52 0.58 0.61 0.62 0.65 0.62 0.54 0.54 0.56 0.64 0.74 0.87 0.82 0.73 0.62 0.48 0.42 0.33
0.25 0.38 0.59 0.68 0.46 0.26 0.12 0.07 0.06 0.07 0.08 0.09 0.08 0.09 0.11 0.16 0.17 0.20 0.29 0.34 0.29 0.31 0.48 0.61 0.79 0.81 0.81 0.77 0.65 0.57 0.52 0.56 0.62 0.66 0.71 0.74 0.71 0.63 0.66 0.66 0.67 0.72 0.78 0.72 0.59 0.57 0.45 0.34 0.27
0.33 0.53 0.81 0.71 0.43 0.25 0.12 0.07 0.07 0.07 0.08 0.11 0.14 0.16 0.20 0.26 0.23 0.27 0.34 0.42 0.48 0.48 0.60 0.78 0.89 0.89 0.88 0.80 0.75 0.70 0.65 0.66 0.70 0.73 0.82 0.82 0.82 0.79 0.82 0.76 0.68 0.64 0.60 0.56 0.48 0.43 0.38 0.31 0.28
0.50 0.82 0.93 0.70 0.37 0.17 0.12 0.09 0.08 0.10 0.10 0.12 0.19 0.29 0.35 0.32 0.28 0.34 0.43 0.49 0.61 0.67 0.76 0.99 1.14 1.11 1.03 0.93 0.87 0.84 0.80 0.77 0.77 0.80 0.89 0.95 0.97 0.94 0.91 0.75 0.61 0.53 0.49 0.49 0.46 0.37 0.32 0.30 0.27
0.78 1.06 0.93 0.61 0.31 0.15 0.10 0.10 0.11 0.13 0.13 0.14 0.22 0.37 0.50 0.44 0.42 0.51 0.56 0.62 0.74 0.80 0.94 1.18 1.35 1.36 1.21 1.08 1.02 1.02 0.99 0.98 0.93 0.91 0.98 1.08 1.08 1.01 0.93 0.72 0.53 0.44 0.45 0.46 0.46 0.41 0.37 0.35 0.30
1.11 1.11 0.87 0.55 0.26 0.16 0.11 0.12 0.14 0.16 0.17 0.20 0.28 0.45 0.63 0.65 0.69 0.79 0.81 0.80 0.93 0.96 1.11 1.34 1.52 1.45 1.36 1.32 1.24 1.24 1.24 1.18 1.10 1.07 1.17 1.22 1.16 1.04 0.91 0.76 0.60 0.48 0.43 0.44 0.44 0.44 0.42 0.37 0.35
1.16 0.97 0.68 0.42 0.25 0.20 0.15 0.13 0.17 0.19 0.22 0.25 0.29 0.55 0.77 0.96 1.07 1.15 1.20 1.20 1.20 1.27 1.42 1.56 1.61 1.50 1.40 1.36 1.35 1.35 1.40 1.41 1.27 1.16 1.21 1.22 1.15 1.02 0.91 0.73 0.67 0.57 0.51 0.48 0.44 0.41 0.44 0.41 0.37
1.15 1.10 0.67 0.41 0.30 0.24 0.20 0.20 0.18 0.22 0.27 0.29 0.37 0.63 0.86 1.07 1.35 1.59 1.62 1.76 1.73 1.75 1.79 1.82 1.86 1.76 1.54 1.39 1.44 1.41 1.36 1.31 1.31 1.23 1.07 1.01 0.95 0.87 0.84 0.64 0.61 0.60 0.56 0.50 0.45 0.43 0.44 0.41 0.33
1.24 1.27 0.74 0.40 0.33 0.28 0.27 0.30 0.25 0.22 0.32 0.42 0.46 0.61 0.90 1.23 1.65 2.09 2.14 2.24 2.28 2.20 2.22 2.12 2.11 2.04 1.94 1.73 1.58 1.58 1.43 1.31 1.25 1.20 1.04 0.97 1.02 0.91 0.71 0.51 0.48 0.50 0.51 0.49 0.45 0.41 0.40 0.33 0.27
1.35 1.11 0.58 0.32 0.31 0.34 0.35 0.39 0.37 0.35 0.41 0.51 0.63 0.70 1.10 1.60 1.99 2.27 2.35 2.28 2.43 2.39 2.43 2.36 2.32 2.28 2.26 1.96 1.79 1.79 1.59 1.39 1.23 1.10 1.10 1.04 1.04 0.99 0.75 0.59 0.46 0.49 0.48 0.48 0.51 0.50 0.42 0.31 0.25
1.09 0.73 0.48 0.39 0.37 0.41 0.45 0.46 0.47 0.51 0.52 0.53 0.61 0.74 1.13 1.69 2.21 2.35 2.54 2.52 2.56 2.71 2.69 2.58 2.53 2.51 2.46 2.31 1.94 1.82 1.67 1.55 1.41 1.21 1.17 1.14 1.17 1.10 0.95 0.82 0.66 0.60 0.49 0.50 0.52 0.54 0.43 0.35 0.32
0.90 0.59 0.55 0.54 0.48 0.54 0.56 0.55 0.53 0.55 0.54 0.52 0.62 0.74 1.08 1.52 1.99 2.37 2.58 2.70 2.56 2.77 2.88 2.76 2.67 2.61 2.57 2.49 2.21 1.92 1.74 1.57 1.44 1.29 1.17 1.22 1.23 1.13 0.99 0.85 0.75 0.68 0.56 0.54 0.54 0.51 0.44 0.36 0.33
0.80 0.61 0.60 0.63 0.62 0.67 0.70 0.64 0.61 0.57 0.54 0.61 0.82 1.02 1.20 1.44 1.75 2.25 2.62 2.73 2.65 2.64 2.91 2.95 2.87 2.72 2.57 2.54 2.41 2.09 1.80 1.58 1.51 1.49 1.32 1.17 1.13 1.07 1.03 0.88 0.85 0.75 0.64 0.60 0.57 0.53 0.51 0.46 0.40
0.68 0.63 0.69 0.74 0.77 0.77 0.87 0.74 0.72 0.67 0.64 0.81 1.01 1.13 1.34 1.55 1.73 2.14 2.48 2.69 2.59 2.50 2.77 2.96 3.09 3.00 2.75 2.49 2.37 2.23 1.99 1.80 1.73 1.63 1.49 1.36 1.24 1.16 1.08 0.94 0.88 0.81 0.69 0.61 0.61 0.58 0.57 0.52 0.45
0.78 0.85 0.87 0.88 0.85 0.83 0.95 0.96 0.74 0.71 0.79 0.89 0.99 1.15 1.35 1.59 1.88 2.16 2.30 2.54 2.73 2.60 2.72 2.92 3.11 3.26 3.10 2.79 2.55 2.39 2.20 1.98 1.86 1.78 1.77 1.64 1.44 1.28 1.21 1.07 0.93 0.85 0.84 0.80 0.75 0.72 0.62 0.53 0.46
1.23 1.19 1.08 0.89 0.83 0.83 1.08 1.10 0.75 0.70 0.83 0.90 1.00 1.15 1.31 1.50 1.79 2.09 2.30 2.52 2.85 2.90 2.92 3.07 3.09 3.23 3.28 3.14 2.85 2.56 2.38 2.18 1.92 1.74 1.75 1.76 1.62 1.46 1.36 1.30 1.15 1.04 1.00 0.97 0.86 0.75 0.70 0.58 0.48
1.37 1.14 0.87 0.78 0.78 0.85 1.00 0.97 0.82 0.74 0.77 0.88 0.99 1.11 1.30 1.41 1.58 1.85 2.15 2.49 2.84 3.02 3.15 3.32 3.31 3.17 3.24 3.37 3.25 2.85 2.52 2.29 2.10 1.85 1.73 1.73 1.72 1.60 1.44 1.29 1.28 1.29 1.19 1.07 0.96 0.80 0.79 0.73 0.59
0.87 0.70 0.60 0.63 0.64 0.71 0.81 0.78 0.83 0.86 0.83 0.81 0.92 1.01 1.20 1.28 1.33 1.53 1.85 2.32 2.78 3.04 3.11 3.25 3.40 3.44 3.47 3.55 3.61 3.34 2.93 2.58 2.34 2.15 1.97 1.85 1.83 1.78 1.64 1.44 1.36 1.39 1.36 1.28 1.17 1.03 0.92 0.84 0.80
0.68 0.63 0.54 0.43 0.44 0.61 0.68 0.74 0.86 0.92 0.83 0.80 0.89 0.94 1.04 1.12 1.19 1.32 1.56 1.95 2.39 2.88 2.99 3.00 3.11 3.30 3.43 3.52 3.51 3.36 3.00 2.80 2.59 2.35 2.22 2.09 1.96 1.92 1.91 1.69 1.57 1.55 1.50 1.46 1.45 1.41 1.24 1.04 0.99
0.76 0.72 0.60 0.50 0.48 0.67 0.72 0.79 0.80 0.84 0.86 0.82 0.82 0.85 0.88 1.01 1.16 1.26 1.44 1.70 1.93 2.41 2.78 2.84 2.92 3.01 3.08 3.12 3.31 3.41 3.27 2.96 2.79 2.67 2.48 2.26 2.09 1.96 1.94 1.92 1.78 1.63 1.60 1.58 1.55 1.50 1.37 1.24 1.16
0.80 0.62 0.58 0.67 0.70 0.79 0.82 0.89 0.80 0.77 0.81 0.76 0.73 0.77 0.76 0.88 1.09 1.20 1.30 1.59 1.75 2.10 2.54 2.74 2.84 2.97 2.94 3.09 3.49 3.69 3.66 3.33 3.01 2.79 2.68 2.51 2.30 2.17 1.99 1.85 1.81 1.73 1.67 1.63 1.61 1.63 1.66 1.54 1.39
0.86 0.50 0.54 0.72 1.00 1.12 0.89 1.08 0.86 0.78 0.75 0.73 0.70 0.74 0.75 0.80 0.98 1.05 1.12 1.40 1.60 1.81 2.15 2.42 2.73 2.96 3.08 3.17 3.35 3.37 3.16 2.94 2.66 2.57 2.54 2.55 2.50 2.29 2.16 2.07 1.96 1.85 1.74 1.67 1.70 1.70 1.73 1.78 1.66
0.77 0.57 0.65 0.82 1.11 1.19 0.78 0.94 0.86 0.74 0.76 0.78 0.76 0.83 0.84 0.82 0.93 1.07 1.11 1.21 1.33 1.57 1.87 2.05 2.30 2.61 2.85 2.99 3.18 3.29 3.08 2.79 2.63 2.59 2.56 2.51 2.50 2.40 2.25 2.14 2.10 2.04 1.90 1.79 1.77 1.78 1.75 1.76 1.76
0.81 0.98 1.02 1.06 1.51 1.58 0.76 0.79 0.84 0.81 0.78 0.75 0.74 0.80 0.82 0.83 0.93 1.02 1.04 1.11 1.18 1.33 1.63 1.80 2.01 2.25 2.53 2.69 2.88 3.14 3.01 2.73 2.45 2.37 2.38 2.33 2.31 2.25 2.16 2.13 2.06 1.99 1.92 1.80 1.72 1.74 1.74 1.71 1.65
1.24 1.73 2.12 2.05 1.94 1.25 0.59 0.74 0.93 0.79 0.70 0.74 0.80 0.78 0.79 0.80 0.84 0.92 0.98 1.10 1.17 1.27 1.38 1.46 1.59 1.78 2.09 2.35 2.47 2.67 2.76 2.70 2.48 2.22 2.17 2.13 2.07 1.99 1.93 1.95 1.95 1.95 1.88 1.81 1.74 1.67 1.61 1.64 1.63
1.22 1.42 1.69 1.50 1.02 0.70 0.61 0.80 0.88 0.71 0.68 0.71 0.76 0.76 0.71 0.75 0.81 0.82 0.88 1.01 1.13 1.23 1.21 1.18 1.26 1.45 1.61 1.81 2.01 2.17 2.24 2.37 2.38 2.22 2.03 1.97 1.89 1.82 1.80 1.83 1.86 1.90 1.93 1.84 1.77 1.69 1.59 1.57 1.56
1.17 1.18 1.00 1.25 0.88 0.74 0.75 0.75 0.74 0.62 0.64 0.64 0.65 0.69 0.71 0.73 0.74 0.78 0.88 0.95 1.00 1.08 1.08 1.06 1.10 1.21 1.29 1.46 1.63 1.86 1.90 1.93 2.02 2.04 2.00 1.93 1.81 1.73 1.75 1.82 1.82 1.76 1.74 1.71 1.69 1.64 1.51 1.42 1.41
0.98 1.00 1.19 1.66 1.43 1.02 0.72 0.68 0.88 0.73 0.70 0.71 0.68 0.71 0.74 0.72 0.74 0.82 0.93 0.98 0.99 1.03 1.02 0.97 1.00 1.07 1.16 1.27 1.43 1.59 1.70 1.76 1.78 1.77 1.76 1.76 1.71 1.61 1.59 1.64 1.69 1.69 1.65 1.62 1.59 1.50 1.40 1.33 1.22
0.93 1.09 1.26 1.31 1.14 1.11 0.87 0.88 0.89 0.75 0.69 0.69 0.66 0.69 0.70 0.69 0.74 0.85 0.94 1.02 1.02 0.98 0.95 0.94 0.91 0.95 1.03 1.12 1.22 1.33 1.42 1.53 1.63 1.58 1.54 1.54 1.53 1.47 1.43 1.48 1.48 1.44 1.43 1.43 1.45 1.39 1.33 1.29 1.23
0.77 0.85 1.05 1.43 1.08 0.86 0.89 0.94 0.78 0.66 0.62 0.63 0.64 0.64 0.64 0.63 0.68 0.78 0.84 0.86 0.89 0.90 0.95 0.97 0.91 0.91 0.93 1.03 1.13 1.18 1.23 1.29 1.39 1.41 1.41 1.38 1.37 1.37 1.34 1.37 1.40 1.34 1.30 1.29 1.30 1.28 1.26 1.27 1.25